Погода в Чивитавеккье

Италия     42°05′47″N   11°47′42″E
темп.,
°C
ветер,
м/с
пор.,
м/с
влажн.,
%
обл.,
%
осадки,
мм/ч
давл.,
гПа
погр.,
м
18 апреля, вс
вс1823:00+13з2255100 0.0 1013675
02:00+12всв2157100 0.0 1012328
05:00+11в446975 0.0 1012254
08:00+11всв336618 0.0 1013284
11:00+12вюв3369100 0.3 1014436
14:00+13ююв6664100 1.9 1014768
17:00+13ююз445985 0.1 1013895
20:00+13з226027 0.2 1014861
19 апреля, пн
пн1923:00+12ссв226599 0.3 1015481
02:00+11в2273100 0.3 1014226
05:00+11с227572 0.3 1014235
08:00+10с33745 0.3 1014247
11:00+11ссз447141 0.0 1015522
14:00+12зсз766911 0.0 1015645
17:00+13зсз766329 0.0 1014617
20:00+13зсз65655 0.0 1014563
20 апреля, вт
вт2023:00+14сз44625 0.0 1015682
02:00+13ссз34675 0.0 1015538
05:00+12ссв22715 0.2 1015248
08:00+12юв21745 0.2 1016284
11:00+12ю21745 0.0 1017326
14:00+13зюз23620 0.0 1017339
17:00+14зюз33620 0.0 1016653
20:00+14юз22590 0.0 1017680
21 апреля, ср
ср2123:00+14юз22660 0.0 1018832
02:00+13ю126481 0.0 1019750
05:00+11вюв447936 0.0 1019245
08:00+11вюв4478100 0.0 1019242
11:00+13юв447390 0.0 1020393
14:00+14ююв4567100 0.0 1020551
17:00+14ю4464100 0.0 1019709
20:00+14ююв2263100 0.0 1019538
22 апреля, чт
чт2223:00+14вюв226870 0.0 1020416
02:00+13всв327172 0.0 1019176
05:00+13в4366100 0.0 1019205
08:00+13всв225995 0.0 1019197
11:00+14юз1154100 0.0 1020156
14:00+15юз1157100 0.0 1020204
17:00+15сз1154100 0.0 1019182
20:00+15ссз225688 0.0 1019160